Litchfield, MN

6:26 AM CST on January 18, 2018 (GMT -0600)
Litchfield Municipal

Weather History for KLJF - January, 2014

Change the Weather History Date:

Thursday, January 2, 2014

  Actual Average Record
Temperature  
Mean Temperature -9 °F -  
Max Temperature -2 °F 22 °F 44 °F (1998)
Min Temperature -16 °F 3 °F -23 °F (1979)
Degree Days  
Heating Degree Days 74    
Moisture  
Dew Point -15 °F    
Average Humidity 71    
Maximum Humidity 84    
Minimum Humidity 55    
Precipitation  
Precipitation 0.00 in - - ()
Sea Level Pressure  
Sea Level Pressure 30.42 in    
Wind  
Wind Speed 2 mph (NNW)    
Max Wind Speed 6 mph    
Max Gust Speed -    
Visibility 10 miles    
Events      
Averages and records for this station are not official NWS values.
T = Trace of Precipitation, MM = Missing Value Source: NWS Daily Summary

Daily Weather History Graph

Daily Weather History Graph

Search for Another Location

Airport or City:

Trip Planner

Search our weather history database for the weather conditions in past years. The results will help you decide how hot, cold, wet, or windy it might be!

Date:

Astronomy

Jan. 02, 2014 Rise Set
Actual Time 7:56 AM CST 4:47 PM CST
Civil Twilight 7:23 AM CST 5:21 PM CST
Nautical Twilight 6:45 AM CST 5:58 PM CST
Astronomical Twilight 6:10 AM CST 6:34 PM CST
Moon 8:33 AM CST (1/2) 6:52 PM CST (1/2)
Length of Visible Light 9h 58m
Length of Day
8h 51m
Waxing Crescent, 3% of the Moon is Illuminated
Jan 2
Waxing Crescent
Jan 7
First Quarter
Jan 15
Full
Jan 23
Last Quarter
Jan 30
New

Hourly Weather History & Observations

Time (CST) Temp. Windchill Dew Point Humidity Pressure Visibility Wind Dir Wind Speed Gust Speed Precip Events Conditions
12:13 AM -2.2 °F - -11.2 °F 66% 30.41 in 10.0 mi Calm Calm - N/A   Overcast
12:33 AM -2.2 °F -10.4 °F -11.2 °F 66% 30.40 in 10.0 mi North 3.5 mph - N/A   Overcast
12:52 AM -2.2 °F -10.4 °F -11.2 °F 66% 30.40 in 10.0 mi North 3.5 mph - N/A   Overcast
1:13 AM -2.2 °F -10.4 °F -11.2 °F 66% 30.39 in 10.0 mi NNE 3.5 mph - N/A   Overcast
1:32 AM -4.0 °F -12.4 °F -11.2 °F 71% 30.40 in 10.0 mi North 3.5 mph - N/A   Overcast
1:53 AM -5.8 °F -16.7 °F -11.2 °F 77% 30.40 in 10.0 mi North 4.6 mph - N/A   Overcast
2:13 AM -5.8 °F - -11.2 °F 77% 30.40 in 10.0 mi Calm Calm - N/A   Overcast
2:32 AM -5.8 °F -14.5 °F -11.2 °F 77% 30.40 in 10.0 mi North 3.5 mph - N/A   Unknown
2:53 AM -5.8 °F - -11.2 °F 77% 30.41 in 10.0 mi Calm Calm - N/A   Overcast
3:13 AM -5.8 °F -16.7 °F -11.2 °F 77% 30.41 in 10.0 mi North 4.6 mph - N/A   Overcast
3:32 AM -5.8 °F -18.4 °F -11.2 °F 77% - 10.0 mi North 5.8 mph - N/A   Overcast
3:53 AM -7.6 °F - -13.0 °F 77% 30.41 in 10.0 mi Calm Calm - N/A   Overcast
4:13 AM -7.6 °F -20.6 °F -14.8 °F 71% 30.40 in 10.0 mi North 5.8 mph - N/A   Overcast
4:32 AM -7.6 °F -20.6 °F -14.8 °F 71% 30.41 in 10.0 mi North 5.8 mph - N/A   Overcast
4:53 AM -9.4 °F -18.6 °F -14.8 °F 77% 30.41 in 10.0 mi North 3.5 mph - N/A   Scattered Clouds
5:13 AM -11.2 °F -23.0 °F -16.6 °F 77% 30.42 in 10.0 mi North 4.6 mph - N/A   Clear
5:32 AM -11.2 °F -20.6 °F -16.6 °F 77% 30.42 in 10.0 mi North 3.5 mph - N/A   Clear
5:53 AM -11.2 °F -20.6 °F -16.6 °F 77% 30.42 in 10.0 mi NNW 3.5 mph - N/A   Clear
6:13 AM -11.2 °F - -16.6 °F 77% 30.42 in 10.0 mi Calm Calm - N/A   Clear
6:32 AM -13.0 °F -25.1 °F -16.6 °F 84% 30.43 in 10.0 mi NNW 4.6 mph - N/A   Clear
6:53 AM -13.0 °F -22.7 °F -18.4 °F 77% 30.43 in 10.0 mi North 3.5 mph - N/A   Clear
7:13 AM -13.0 °F -22.7 °F -16.6 °F 84% 30.44 in 10.0 mi North 3.5 mph - N/A   Clear
7:32 AM -14.8 °F -27.2 °F -18.4 °F 84% 30.44 in 10.0 mi North 4.6 mph - N/A   Clear
7:53 AM -14.8 °F - -18.4 °F 84% 30.44 in 10.0 mi Calm Calm - N/A   Clear
8:13 AM -14.8 °F -24.8 °F -18.4 °F 84% 30.44 in 10.0 mi North 3.5 mph - N/A   Clear
8:32 AM -13.0 °F - -18.4 °F 77% 30.44 in 10.0 mi Calm Calm - N/A   Clear
8:53 AM -13.0 °F - -18.4 °F 77% 30.45 in 10.0 mi Calm Calm - N/A   Clear
9:13 AM -11.2 °F -20.6 °F -16.6 °F 77% 30.46 in 10.0 mi NNW 3.5 mph - N/A   Clear
9:32 AM -11.2 °F - -16.6 °F 77% 30.46 in 10.0 mi Calm Calm - N/A   Clear
9:53 AM -9.4 °F -18.6 °F -16.6 °F 71% 30.47 in 10.0 mi North 3.5 mph - N/A   Clear
10:12 AM -9.4 °F -20.9 °F -16.6 °F 71% 30.47 in 10.0 mi North 4.6 mph - N/A   Clear
10:33 AM -7.6 °F -16.5 °F -16.6 °F 65% 30.48 in 10.0 mi North 3.5 mph - N/A   Clear
10:52 AM -7.6 °F - -16.6 °F 65% 30.48 in 10.0 mi Calm Calm - N/A   Clear
11:13 AM -7.6 °F - -16.6 °F 65% 30.47 in 10.0 mi Calm Calm - N/A   Clear
11:33 AM -5.8 °F -14.5 °F -16.6 °F 60% 30.47 in 10.0 mi NNE 3.5 mph - N/A   Clear
11:52 AM -5.8 °F - -16.6 °F 60% 30.46 in 10.0 mi Calm Calm - N/A   Clear
12:13 PM -5.8 °F - -16.6 °F 60% 30.45 in 10.0 mi Calm Calm - N/A   Clear
12:33 PM -4.0 °F - -14.8 °F 60% 30.45 in 10.0 mi Calm Calm - N/A   Clear
12:52 PM -2.2 °F - -14.8 °F 55% 30.44 in 10.0 mi Calm Calm - N/A   Clear
1:13 PM -2.2 °F - -14.8 °F 55% 30.44 in 10.0 mi Calm Calm - N/A   Clear
1:33 PM -2.2 °F - -14.8 °F 55% 30.44 in 10.0 mi Calm Calm - N/A   Clear
1:52 PM -2.2 °F - -14.8 °F 55% 30.45 in 10.0 mi Calm Calm - N/A   Clear
2:13 PM -2.2 °F - -14.8 °F 55% 30.44 in 10.0 mi Calm Calm - N/A   Clear
2:33 PM -2.2 °F - -14.8 °F 55% 30.43 in 10.0 mi Calm Calm - N/A   Clear
2:52 PM -2.2 °F -10.4 °F -14.8 °F 55% 30.45 in 10.0 mi West 3.5 mph - N/A   Clear
3:13 PM -2.2 °F -12.5 °F -14.8 °F 55% 30.45 in 10.0 mi West 4.6 mph - N/A   Clear
3:33 PM -2.2 °F -12.5 °F -13.0 °F 60% 30.45 in 10.0 mi West 4.6 mph - N/A   Clear
3:52 PM -2.2 °F -10.4 °F -14.8 °F 55% 30.45 in 10.0 mi West 3.5 mph - N/A   Clear
4:13 PM -2.2 °F - -14.8 °F 55% 30.44 in 10.0 mi Calm Calm - N/A   Clear
4:32 PM -4.0 °F - -14.8 °F 60% 30.44 in 10.0 mi Calm Calm - N/A   Clear
4:53 PM -5.8 °F - -14.8 °F 65% 30.45 in 10.0 mi Calm Calm - N/A   Clear
5:13 PM -5.8 °F - -14.8 °F 65% 30.44 in 10.0 mi Calm Calm - N/A   Clear
5:32 PM -5.8 °F - -14.8 °F 65% 30.43 in 10.0 mi Calm Calm - N/A   Clear
5:53 PM -7.6 °F - -14.8 °F 71% 30.43 in 10.0 mi Calm Calm - N/A   Clear
6:13 PM -7.6 °F -16.5 °F -14.8 °F 71% 30.43 in 10.0 mi SW 3.5 mph - N/A   Clear
6:33 PM -9.4 °F - -14.8 °F 77% 30.42 in 10.0 mi Calm Calm - N/A   Clear
6:52 PM -9.4 °F - -14.8 °F 77% 30.42 in 10.0 mi Calm Calm - N/A   Clear
7:13 PM -9.4 °F - -14.8 °F 77% 30.41 in 10.0 mi Calm Calm - N/A   Clear
7:33 PM -9.4 °F - -14.8 °F 77% 30.41 in 10.0 mi Calm Calm - N/A   Clear
7:52 PM -11.2 °F - -16.6 °F 77% 30.40 in 10.0 mi Calm Calm - N/A   Clear
8:13 PM -11.2 °F - -16.6 °F 77% 30.38 in 10.0 mi Calm Calm - N/A   Clear
8:32 PM -13.0 °F - -18.4 °F 77% 30.38 in 10.0 mi Calm Calm - N/A   Clear
8:53 PM -14.8 °F - -18.4 °F 84% 30.37 in 10.0 mi Calm Calm - N/A   Unknown
9:13 PM -13.0 °F - -18.4 °F 77% 30.35 in 10.0 mi Calm Calm - N/A   Clear
9:32 PM -16.6 °F - -20.2 °F 84% 30.35 in 10.0 mi Calm Calm - N/A   Clear
9:53 PM -14.8 °F - -18.4 °F 84% 30.35 in 10.0 mi Calm Calm - N/A   Clear
10:13 PM -13.0 °F - -18.4 °F 77% 30.35 in 10.0 mi Calm Calm - N/A   Clear
10:32 PM -13.0 °F - -18.4 °F 77% 30.34 in 10.0 mi Calm Calm - N/A   Clear
10:53 PM -13.0 °F - -16.6 °F 84% 30.33 in 10.0 mi Calm Calm - N/A   Clear
11:13 PM -11.2 °F - -16.6 °F 77% 30.33 in 10.0 mi Calm Calm - N/A   Clear
11:32 PM -11.2 °F - -16.6 °F 77% 30.32 in 10.0 mi Calm Calm - N/A   Clear
11:53 PM -11.2 °F - -16.6 °F 77% 30.30 in 10.0 mi Calm Calm - N/A   Clear